Location: Unspecified
(45.6635°N, 122.4424°W)
Time: 19:50:22
(UTC+00:00)

Okean 3 - Visible Passes

Search period start: 22 May 2018 00:00
Search period end: 01 June 2018 00:00
Orbit: 577 x 602 km, 82.5° (Epoch: 22 May)

Date Brightness Start Highest point End Pass type
(mag) Time Alt. Az. Time Alt. Az. Time Alt. Az.
22 May 5.6 05:13:05 10° SW 05:16:46 27° WNW 05:20:27 10° NNW visible
23 May 6.2 05:21:52 10° WSW 05:25:00 19° WNW 05:28:08 10° NNW visible
24 May 6.5 05:31:00 10° W 05:33:16 14° WNW 05:35:32 10° NW visible
27 May 5.0 04:15:50 10° SSW 04:19:54 41° WNW 04:23:57 10° N visible
28 May 5.8 04:24:20 10° SW 04:28:04 29° WNW 04:31:48 10° NNW visible
29 May 6.4 04:33:05 10° WSW 04:36:17 20° WNW 04:39:30 10° NNW visible
30 May 6.6 04:42:09 10° WSW 04:44:32 15° WNW 04:46:57 10° NNW visible
31 May 7.2 04:52:26 10° WNW 04:52:51 10° WNW 04:53:16 10° WNW visible
